• In Deutschland
  • Länderverzeichnis
  • Für 7 Tage
  • Wassertemperatur
  • Satellitenkarten
  • Wetterkarte
  • Widgets
  • user-avatar
    Anmelden

    Stündliche Wetter Julara

    Heute, 28 Juli, Freitag

    Zeit Temperatur Niederschläge Wind Luftdruck Luftfeuchtigkeit
    00:00 +18°C° 0 mm 2 m/S 721 mmHg 24%
    01:00 +18°C° 0 mm 2 m/S 721 mmHg 24%
    02:00 +17°C° 0 mm 2 m/S 721 mmHg 24%
    03:00 +17°C° 0 mm 3 m/S 721 mmHg 24%
    04:00 +16°C° 0 mm 3 m/S 721 mmHg 25%
    05:00 +16°C° 0 mm 3 m/S 721 mmHg 25%
    06:00 +15°C° 0 mm 2 m/S 721 mmHg 26%
    07:00 +17°C° 0 mm 2 m/S 721 mmHg 24%
    08:00 +18°C° 0 mm 2 m/S 722 mmHg 22%
    09:00 +20°C° 0 mm 2 m/S 722 mmHg 20%
    10:00 +22°C° 0 mm 3 m/S 722 mmHg 18%
    11:00 +25°C° 0 mm 4 m/S 722 mmHg 17%
    12:00 +27°C° 0 mm 5 m/S 722 mmHg 15%
    13:00 +27°C° 0 mm 5 m/S 721 mmHg 14%
    14:00 +28°C° 0 mm 5 m/S 721 mmHg 14%
    15:00 +29°C° 0 mm 5 m/S 720 mmHg 13%
    16:00 +27°C° 0 mm 4 m/S 720 mmHg 15%
    17:00 +26°C° 0 mm 4 m/S 719 mmHg 16%
    18:00 +24°C° 0 mm 3 m/S 719 mmHg 18%
    19:00 +22°C° 0 mm 3 m/S 719 mmHg 19%
    20:00 +21°C° 0 mm 3 m/S 720 mmHg 20%
    21:00 +20°C° 0 mm 3 m/S 720 mmHg 21%
    22:00 +20°C° 0 mm 3 m/S 720 mmHg 22%
    23:00 +19°C° 0 mm 3 m/S 720 mmHg 22%

    Morgen, 29 Juli, Samstag

    Zeit Temperatur Niederschläge Wind Luftdruck Luftfeuchtigkeit
    00:00 +19°C° 0 mm 3 m/S 720 mmHg 23%
    01:00 +19°C° 0 mm 3 m/S 719 mmHg 23%
    02:00 +18°C° 0 mm 3 m/S 719 mmHg 24%
    03:00 +18°C° 0 mm 3 m/S 719 mmHg 24%
    04:00 +17°C° 0 mm 4 m/S 719 mmHg 25%
    05:00 +17°C° 0 mm 4 m/S 719 mmHg 26%
    06:00 +15°C° 0 mm 4 m/S 719 mmHg 27%
    07:00 +17°C° 0 mm 5 m/S 719 mmHg 26%
    08:00 +19°C° 0 mm 6 m/S 719 mmHg 25%
    09:00 +21°C° 0 mm 6 m/S 720 mmHg 23%
    10:00 +23°C° 0 mm 7 m/S 719 mmHg 21%
    11:00 +26°C° 0 mm 7 m/S 719 mmHg 19%
    12:00 +28°C° 0 mm 8 m/S 719 mmHg 17%
    13:00 +29°C° 0 mm 8 m/S 718 mmHg 16%
    14:00 +31°C° 0 mm 8 m/S 717 mmHg 16%
    15:00 +32°C° 0 mm 8 m/S 717 mmHg 15%
    16:00 +29°C° 0 mm 6 m/S 717 mmHg 17%
    17:00 +28°C° 0 mm 5 m/S 717 mmHg 19%
    18:00 +26°C° 0 mm 4 m/S 717 mmHg 21%
    19:00 +25°C° 0 mm 4 m/S 717 mmHg 26%
    20:00 +22°C° 0 mm 4 m/S 718 mmHg 30%
    21:00 +21°C° 0 mm 4 m/S 718 mmHg 35%
    22:00 +20°C° 0 mm 4 m/S 718 mmHg 39%
    23:00 +20°C° 0 mm 4 m/S 718 mmHg 43%

    übermorgen, 30 Juli, Sonntag

    Zeit Temperatur Niederschläge Wind Luftdruck Luftfeuchtigkeit
    00:00 +19°C° 0 mm 4 m/S 718 mmHg 47%
    01:00 +19°C° 0 mm 3 m/S 718 mmHg 49%
    02:00 +19°C° 0 mm 3 m/S 718 mmHg 52%
    03:00 +18°C° 0 mm 3 m/S 718 mmHg 54%
    04:00 +18°C° 0 mm 3 m/S 718 mmHg 54%
    05:00 +18°C° 0 mm 3 m/S 718 mmHg 54%
    06:00 +18°C° 0 mm 3 m/S 718 mmHg 55%
    07:00 +18°C° 0 mm 4 m/S 719 mmHg 53%
    08:00 +18°C° 0 mm 4 m/S 719 mmHg 52%
    09:00 +17°C° 0 mm 5 m/S 720 mmHg 50%
    10:00 +17°C° 0 mm 5 m/S 720 mmHg 48%
    11:00 +19°C° 0 mm 6 m/S 720 mmHg 45%
    12:00 +19°C° 0 mm 6 m/S 720 mmHg 43%
    13:00 +17°C° 0,1 mm 6 m/S 719 mmHg 46%
    14:00 +16°C° 0,1 mm 6 m/S 718 mmHg 49%
    15:00 +15°C° 0,1 mm 6 m/S 718 mmHg 51%
    16:00 +15°C° 0 mm 5 m/S 718 mmHg 49%
    17:00 +15°C° 0 mm 4 m/S 719 mmHg 46%
    18:00 +15°C° 0 mm 4 m/S 719 mmHg 43%
    19:00 +14°C° 0 mm 4 m/S 720 mmHg 41%
    20:00 +14°C° 0 mm 5 m/S 721 mmHg 40%
    21:00 +13°C° 0 mm 5 m/S 722 mmHg 38%
    22:00 +12°C° 0 mm 5 m/S 722 mmHg 39%
    23:00 +12°C° 0 mm 5 m/S 722 mmHg 39%

    31 Juli, Montag

    Zeit Temperatur Niederschläge Wind Luftdruck Luftfeuchtigkeit
    00:00 +10°C° 0 mm 5 m/S 722 mmHg 40%
    01:00 +9°C° 0 mm 5 m/S 722 mmHg 42%
    02:00 +10°C° 0 mm 4 m/S 722 mmHg 45%
    03:00 +8°C° 0 mm 4 m/S 721 mmHg 48%
    04:00 +8°C° 0 mm 4 m/S 722 mmHg 50%
    05:00 +7°C° 0 mm 4 m/S 722 mmHg 52%
    06:00 +7°C° 0 mm 4 m/S 722 mmHg 54%
    07:00 +8°C° 0 mm 5 m/S 723 mmHg 50%
    08:00 +9°C° 0 mm 5 m/S 723 mmHg 46%
    09:00 +11°C° 0 mm 6 m/S 723 mmHg 42%
    10:00 +13°C° 0 mm 6 m/S 723 mmHg 37%
    11:00 +15°C° 0 mm 6 m/S 723 mmHg 31%
    12:00 +16°C° 0 mm 6 m/S 722 mmHg 26%
    13:00 +17°C° 0 mm 6 m/S 722 mmHg 24%
    14:00 +19°C° 0 mm 6 m/S 721 mmHg 21%
    15:00 +19°C° 0 mm 6 m/S 721 mmHg 19%
    16:00 +17°C° 0 mm 5 m/S 721 mmHg 20%
    17:00 +16°C° 0 mm 5 m/S 721 mmHg 21%
    18:00 +15°C° 0 mm 4 m/S 721 mmHg 23%
    19:00 +14°C° 0 mm 4 m/S 721 mmHg 24%
    20:00 +14°C° 0 mm 4 m/S 721 mmHg 25%
    21:00 +13°C° 0 mm 4 m/S 722 mmHg 26%
    22:00 +12°C° 0 mm 5 m/S 722 mmHg 27%
    23:00 +12°C° 0 mm 5 m/S 721 mmHg 29%

    1 August, Dienstag

    Zeit Temperatur Niederschläge Wind Luftdruck Luftfeuchtigkeit
    00:00 +10°C° 0 mm 5 m/S 721 mmHg 30%
    01:00 +10°C° 0 mm 5 m/S 721 mmHg 32%
    02:00 +9°C° 0 mm 5 m/S 721 mmHg 33%
    03:00 +9°C° 0 mm 5 m/S 720 mmHg 35%
    04:00 +8°C° 0 mm 5 m/S 720 mmHg 36%
    05:00 +8°C° 0 mm 5 m/S 720 mmHg 37%
    06:00 +7°C° 0 mm 4 m/S 720 mmHg 38%
    07:00 +9°C° 0 mm 5 m/S 720 mmHg 36%
    08:00 +10°C° 0 mm 5 m/S 720 mmHg 34%
    09:00 +11°C° 0 mm 6 m/S 720 mmHg 31%
    10:00 +15°C° 0 mm 6 m/S 720 mmHg 30%
    11:00 +17°C° 0 mm 5 m/S 719 mmHg 30%
    12:00 +21°C° 0 mm 5 m/S 719 mmHg 29%
    13:00 +22°C° 0 mm 6 m/S 718 mmHg 29%
    14:00 +23°C° 0 mm 6 m/S 717 mmHg 29%
    15:00 +24°C° 0 mm 7 m/S 716 mmHg 29%
    16:00 +23°C° 0 mm 6 m/S 716 mmHg 32%
    17:00 +22°C° 0 mm 4 m/S 716 mmHg 36%
    18:00 +21°C° 0 mm 3 m/S 716 mmHg 39%
    19:00 +21°C° 0 mm 3 m/S 716 mmHg 37%
    20:00 +20°C° 0 mm 4 m/S 716 mmHg 35%
    21:00 +20°C° 0 mm 4 m/S 716 mmHg 33%
    22:00 +17°C° 0 mm 6 m/S 717 mmHg 35%
    23:00 +16°C° 0 mm 8 m/S 717 mmHg 37%

    2 August, Mittwoch

    Zeit Temperatur Niederschläge Wind Luftdruck Luftfeuchtigkeit
    00:00 +14°C° 0 mm 10 m/S 717 mmHg 39%
    01:00 +12°C° 0,1 mm 9 m/S 717 mmHg 45%
    02:00 +11°C° 0,1 mm 8 m/S 717 mmHg 51%
    03:00 +10°C° 0,1 mm 7 m/S 717 mmHg 57%
    04:00 +9°C° 0 mm 6 m/S 717 mmHg 60%
    05:00 +8°C° 0 mm 6 m/S 717 mmHg 63%
    06:00 +7°C° 0 mm 6 m/S 718 mmHg 65%
    07:00 +8°C° 0 mm 7 m/S 718 mmHg 62%
    08:00 +7°C° 0 mm 8 m/S 719 mmHg 59%
    09:00 +8°C° 0 mm 9 m/S 720 mmHg 55%
    10:00 +10°C° 0 mm 9 m/S 719 mmHg 48%
    11:00 +11°C° 0 mm 9 m/S 719 mmHg 41%
    12:00 +12°C° 0 mm 8 m/S 719 mmHg 34%
    13:00 +13°C° 0 mm 8 m/S 719 mmHg 31%
    14:00 +13°C° 0 mm 8 m/S 718 mmHg 28%
    15:00 +15°C° 0 mm 7 m/S 718 mmHg 25%
    16:00 +14°C° 0 mm 7 m/S 718 mmHg 28%
    17:00 +13°C° 0 mm 6 m/S 718 mmHg 32%
    18:00 +13°C° 0 mm 6 m/S 719 mmHg 35%
    19:00 +12°C° 0 mm 5 m/S 719 mmHg 40%
    20:00 +10°C° 0 mm 5 m/S 720 mmHg 45%
    21:00 +9°C° 0 mm 5 m/S 720 mmHg 49%
    22:00 +9°C° 0 mm 5 m/S 720 mmHg 54%
    23:00 +9°C° 0 mm 5 m/S 720 mmHg 58%
    Mehr zeigen